When you browse on this site, cookies collect data to enhance your experience and personalize the content and advertising you see.
Visit our Privacy Policy to learn more. By continuing to use the site, you agree to this use of cookies and data.
  • In United Kingdom
  • List of Countries
  • For 7 days
  • Water Temperature
  • Weather Map
  • Weather Widgets
  • user-avatar
    Login

    Hourly Weather Szigetszentmiklos

    Today, 23 September, Monday

    Time Temperature Precipitation Wind Pressure Humidity
    00:00 +16°C° 0 mm 2 mps 752 mmHg 35%
    01:00 +17°C° 0 mm 2 mps 752 mmHg 38%
    02:00 +17°C° 0 mm 2 mps 751 mmHg 38%
    03:00 +17°C° 0 mm 2 mps 751 mmHg 37%
    04:00 +17°C° 0 mm 2 mps 751 mmHg 36%
    05:00 +17°C° 0 mm 2 mps 751 mmHg 39%
    06:00 +17°C° 0 mm 2 mps 751 mmHg 41%
    07:00 +17°C° 0 mm 2 mps 751 mmHg 44%
    08:00 +17°C° 0.1 mm 2 mps 751 mmHg 49%
    09:00 +16°C° 0.1 mm 2 mps 751 mmHg 53%
    10:00 +16°C° 0.1 mm 2 mps 752 mmHg 58%
    11:00 +16°C° 0.1 mm 3 mps 752 mmHg 60%
    12:00 +16°C° 0.1 mm 3 mps 752 mmHg 61%
    13:00 +15°C° 0.1 mm 4 mps 751 mmHg 63%
    14:00 +15°C° 0 mm 4 mps 751 mmHg 61%
    15:00 +16°C° 0 mm 3 mps 751 mmHg 59%
    16:00 +16°C° 0 mm 3 mps 751 mmHg 57%
    17:00 +14°C° 0 mm 3 mps 751 mmHg 60%
    18:00 +15°C° 0 mm 2 mps 751 mmHg 62%
    19:00 +14°C° 0 mm 2 mps 752 mmHg 65%
    20:00 +14°C° 0 mm 2 mps 752 mmHg 66%
    21:00 +14°C° 0 mm 2 mps 751 mmHg 66%
    22:00 +14°C° 0 mm 2 mps 751 mmHg 67%
    23:00 +14°C° 0 mm 2 mps 751 mmHg 67%

    Tomorrow, 24 September, Tuesday

    Time Temperature Precipitation Wind Pressure Humidity
    00:00 +14°C° 0 mm 2 mps 751 mmHg 67%
    01:00 +14°C° 0 mm 2 mps 751 mmHg 67%
    02:00 +14°C° 0 mm 2 mps 751 mmHg 69%
    03:00 +14°C° 0 mm 2 mps 751 mmHg 70%
    04:00 +14°C° 0 mm 2 mps 751 mmHg 72%
    05:00 +14°C° 0 mm 2 mps 751 mmHg 71%
    06:00 +15°C° 0 mm 2 mps 751 mmHg 70%
    07:00 +16°C° 0 mm 2 mps 751 mmHg 70%
    08:00 +17°C° 0 mm 2 mps 751 mmHg 67%
    09:00 +18°C° 0 mm 2 mps 751 mmHg 64%
    10:00 +19°C° 0 mm 2 mps 751 mmHg 61%
    11:00 +20°C° 0 mm 2 mps 751 mmHg 56%
    12:00 +21°C° 0 mm 2 mps 751 mmHg 51%
    13:00 +23°C° 0 mm 2 mps 751 mmHg 46%
    14:00 +23°C° 0 mm 1 mps 750 mmHg 45%
    15:00 +23°C° 0 mm 1 mps 750 mmHg 44%
    16:00 +23°C° 0 mm 1 mps 750 mmHg 43%
    17:00 +22°C° 0 mm 1 mps 750 mmHg 49%
    18:00 +19°C° 0 mm 2 mps 750 mmHg 54%
    19:00 +17°C° 0 mm 2 mps 750 mmHg 60%
    20:00 +17°C° 0 mm 2 mps 750 mmHg 62%
    21:00 +17°C° 0 mm 2 mps 750 mmHg 63%
    22:00 +17°C° 0 mm 2 mps 750 mmHg 65%
    23:00 +16°C° 0 mm 2 mps 750 mmHg 68%

    Day after tomorrow, 25 September, Wednesday

    Time Temperature Precipitation Wind Pressure Humidity
    00:00 +16°C° 0 mm 2 mps 750 mmHg 71%
    01:00 +16°C° 0 mm 2 mps 750 mmHg 74%
    02:00 +15°C° 0 mm 2 mps 750 mmHg 78%
    03:00 +15°C° 0 mm 2 mps 750 mmHg 82%
    04:00 +14°C° 0 mm 2 mps 750 mmHg 86%
    05:00 +14°C° 0 mm 2 mps 750 mmHg 86%
    06:00 +15°C° 0 mm 2 mps 750 mmHg 85%
    07:00 +15°C° 0 mm 2 mps 750 mmHg 85%
    08:00 +17°C° 0 mm 2 mps 750 mmHg 77%
    09:00 +18°C° 0 mm 2 mps 750 mmHg 68%
    10:00 +20°C° 0 mm 2 mps 750 mmHg 60%
    11:00 +21°C° 0 mm 2 mps 750 mmHg 56%
    12:00 +23°C° 0 mm 2 mps 749 mmHg 52%
    13:00 +24°C° 0 mm 2 mps 749 mmHg 47%
    14:00 +24°C° 0 mm 1 mps 749 mmHg 49%
    15:00 +23°C° 0 mm 1 mps 749 mmHg 50%
    16:00 +23°C° 0 mm 1 mps 748 mmHg 51%
    17:00 +22°C° 0 mm 1 mps 749 mmHg 54%
    18:00 +21°C° 0 mm 1 mps 749 mmHg 58%
    19:00 +19°C° 0 mm 2 mps 749 mmHg 62%
    20:00 +19°C° 0 mm 2 mps 749 mmHg 64%
    21:00 +18°C° 0 mm 2 mps 750 mmHg 67%
    22:00 +18°C° 0 mm 2 mps 750 mmHg 69%
    23:00 +17°C° 0 mm 3 mps 750 mmHg 72%

    26 September, Thursday

    Time Temperature Precipitation Wind Pressure Humidity
    00:00 +17°C° 0 mm 3 mps 750 mmHg 74%
    01:00 +16°C° 0 mm 3 mps 750 mmHg 76%
    02:00 +15°C° 0.1 mm 4 mps 750 mmHg 78%
    03:00 +15°C° 0.1 mm 4 mps 750 mmHg 79%
    04:00 +15°C° 0.1 mm 4 mps 750 mmHg 80%
    05:00 +14°C° 1.1 mm 3 mps 750 mmHg 83%
    06:00 +14°C° 1.1 mm 3 mps 750 mmHg 85%
    07:00 +14°C° 1.1 mm 3 mps 750 mmHg 87%
    08:00 +14°C° 0.8 mm 3 mps 751 mmHg 85%
    09:00 +14°C° 0.8 mm 3 mps 751 mmHg 83%
    10:00 +14°C° 0.8 mm 3 mps 751 mmHg 81%
    11:00 +17°C° 0 mm 3 mps 751 mmHg 72%
    12:00 +19°C° 0 mm 3 mps 751 mmHg 64%
    13:00 +20°C° 0 mm 3 mps 751 mmHg 55%
    14:00 +21°C° 0 mm 3 mps 751 mmHg 53%
    15:00 +21°C° 0 mm 4 mps 752 mmHg 52%
    16:00 +21°C° 0 mm 4 mps 752 mmHg 50%
    17:00 +20°C° 0 mm 3 mps 752 mmHg 55%
    18:00 +19°C° 0 mm 3 mps 752 mmHg 59%
    19:00 +18°C° 0 mm 3 mps 753 mmHg 63%
    20:00 +17°C° 0 mm 3 mps 753 mmHg 66%
    21:00 +17°C° 0 mm 3 mps 753 mmHg 69%
    22:00 +16°C° 0 mm 3 mps 753 mmHg 72%
    23:00 +16°C° 0 mm 3 mps 754 mmHg 75%

    27 September, Friday

    Time Temperature Precipitation Wind Pressure Humidity
    00:00 +14°C° 0 mm 3 mps 754 mmHg 78%
    01:00 +14°C° 0 mm 3 mps 754 mmHg 81%
    02:00 +13°C° 0 mm 3 mps 754 mmHg 83%
    03:00 +14°C° 0 mm 2 mps 754 mmHg 85%
    04:00 +14°C° 0 mm 2 mps 754 mmHg 86%
    05:00 +14°C° 0 mm 2 mps 754 mmHg 85%
    06:00 +15°C° 0 mm 2 mps 754 mmHg 83%
    07:00 +15°C° 0 mm 2 mps 754 mmHg 81%
    08:00 +17°C° 0 mm 2 mps 755 mmHg 73%
    09:00 +19°C° 0 mm 2 mps 755 mmHg 66%
    10:00 +21°C° 0 mm 2 mps 755 mmHg 58%
    11:00 +23°C° 0 mm 2 mps 755 mmHg 54%
    12:00 +24°C° 0 mm 2 mps 755 mmHg 50%
    13:00 +24°C° 0 mm 2 mps 754 mmHg 47%
    14:00 +24°C° 0 mm 2 mps 754 mmHg 47%
    15:00 +24°C° 0 mm 2 mps 754 mmHg 48%
    16:00 +24°C° 0 mm 2 mps 754 mmHg 49%
    17:00 +23°C° 0 mm 2 mps 754 mmHg 54%
    18:00 +22°C° 0 mm 1 mps 754 mmHg 59%
    19:00 +20°C° 0 mm 1 mps 754 mmHg 64%
    20:00 +20°C° 0 mm 1 mps 754 mmHg 65%
    21:00 +20°C° 0 mm 1 mps 755 mmHg 66%
    22:00 +19°C° 0 mm 1 mps 755 mmHg 67%
    23:00 +19°C° 0 mm 1 mps 755 mmHg 68%

    28 September, Saturday

    Time Temperature Precipitation Wind Pressure Humidity
    00:00 +18°C° 0 mm 1 mps 755 mmHg 70%
    01:00 +17°C° 0 mm 2 mps 754 mmHg 72%
    02:00 +18°C° 0 mm 1 mps 754 mmHg 72%
    03:00 +16°C° 0 mm 1 mps 754 mmHg 73%
    04:00 +16°C° 0 mm 1 mps 754 mmHg 74%
    05:00 +16°C° 0 mm 1 mps 754 mmHg 72%
    06:00 +18°C° 0 mm 1 mps 754 mmHg 71%
    07:00 +18°C° 0 mm 1 mps 754 mmHg 69%
    08:00 +19°C° 0 mm 2 mps 755 mmHg 63%
    09:00 +21°C° 0 mm 2 mps 755 mmHg 57%
    10:00 +22°C° 0 mm 3 mps 755 mmHg 50%
    11:00 +24°C° 0 mm 3 mps 755 mmHg 47%
    12:00 +25°C° 0 mm 3 mps 754 mmHg 44%
    13:00 +26°C° 0 mm 3 mps 754 mmHg 41%
    14:00 +26°C° 0 mm 3 mps 754 mmHg 41%
    15:00 +26°C° 0 mm 3 mps 754 mmHg 42%
    16:00 +26°C° 0 mm 3 mps 753 mmHg 42%
    17:00 +25°C° 0 mm 3 mps 753 mmHg 47%
    18:00 +23°C° 0 mm 2 mps 754 mmHg 51%
    19:00 +21°C° 0 mm 2 mps 754 mmHg 55%
    20:00 +20°C° 0 mm 2 mps 754 mmHg 57%
    21:00 +21°C° 0 mm 1 mps 754 mmHg 59%
    22:00 +20°C° 0 mm 1 mps 754 mmHg 61%
    23:00 +19°C° 0 mm 1 mps 754 mmHg 63%
    Show more